Regional Weather Roundup
Issued by NWS

Home | Current Version | Previous Version | Graphics & Text | Print | Product List | Glossary On
Versions: 1 2 3 4 5 6 7 8 9 10 11 12 13 14 15 16 17 18 19 20 21 22 23 24 25 26 27 28 29 30 31 32 33 34 35 36 37 38 39 40 41 42 43 44 45 46 47 48 49 50
000
ASUS43 KDMX 210606
RWRIA

WEATHER ROUNDUP FOR IOWA
NATIONAL WEATHER SERVICE DES MOINES IA
1200 AM CST TUE NOV 21 2017

NOTE: "FAIR" INDICATES FEW OR NO CLOUDS BELOW 12,000 FEET WITH NO
SIGNIFICANT WEATHER AND/OR OBSTRUCTIONS TO VISIBILITY.

* - THESE STATIONS ARE NOT NWS STATIONS...THUS NOT UNDER NWS
QUALITY CONTROL.  THEY ALSO DO NOT REPORT WEATHER SUCH
AS PRECIPITATION OR FOG.

IAZ001>003-012>014-020>022-031>034-043>046-210700-
   NORTHWEST IOWA

CITY           SKY/WX    TMP DP  RH WIND       PRES   REMARKS
CARROLL *      PTCLDY    41  28  60 W8        29.67R
CHEROKEE *     PTCLDY    43  26  52 NW8       29.69R
DENISON *      CLOUDY    41  28  60 CALM      29.70R
LE MARS *      PTCLDY    43  27  52 NW6       29.71R
ORANGE CITY *  CLOUDY    43  28  56 NW7       29.69R
SHELDON *      CLOUDY    36  25  64 NW10      29.68R WCI  28
SIOUX CITY     CLOUDY    35  28  75 NW9       29.71R WCI  28
6HR MIN TEMP:  33; 6HR MAX TEMP:  42;

SPENCER        PTCLDY    37  25  61 N8        29.67R WCI  31
6HR MIN TEMP:  35; 6HR MAX TEMP:  46;

STORM LAKE *   PTCLDY    39  27  60 NW10      29.68R WCI  32
$$

IAZ055>058-069>071-079>083-090>094-210700-
   SOUTHWEST IOWA

CITY           SKY/WX    TMP DP  RH WIND       PRES   REMARKS
ATLANTIC *     CLOUDY    36  30  80 S3        29.69S
AUDUBON *      PTCLDY    41  30  65 CALM      29.68S
CLARINDA *       N/A     34  30  86 S3        29.72S
COUNCIL BLFS * PTCLDY    43  28  56 W6        29.69R
CRESTON *      CLOUDY    39  30  70 W10       29.71R WCI  32
HARLAN  *      PTCLDY    37  30  75 CALM      29.72R
LAMONI         CLEAR     46  30  53 SW13      29.68F
6HR MIN TEMP:  46; 6HR MAX TEMP:  54;

RED OAK *      CLOUDY    34  28  80 SW3       29.70S
SHENANDOAH *   CLOUDY    39  28  65 CALM      29.71S
$$

IAZ047>049-059>061-072>074-084-210700-
   CENTRAL IOWA

CITY           SKY/WX    TMP DP  RH WIND       PRES   REMARKS
AMES           MOCLDY    37  31  78 W8        29.65R WCI  31
6HR MIN TEMP:  37; 6HR MAX TEMP:  51;

ANKENY *       PTCLDY    48  30  49 W12       29.67R
BOONE *        CLOUDY    45  28  53 W12       29.65R
CHARITON *     CLOUDY    46  30  53 SW6       29.68R
DES MOINES     MOCLDY    45  29  53 SW6       29.67S
6HR MIN TEMP:  45; 6HR MAX TEMP:  55;

GRINNELL*      PTCLDY    42  31  65 SW10      29.66S
KNOXVILLE *    PTCLDY    48  28  46 SW9       29.65S
MARSHALLTOWN   CLEAR     38  30  73 W8        29.64R WCI  32
6HR MIN TEMP:  37; 6HR MAX TEMP:  54;

NEWTON *       CLEAR     41  30  65 SW7       29.66R
PELLA *        CLEAR     48  30  50 W6        29.68R
PERRY *          N/A     38  28  67 W9        29.66S WCI  32
$$

IAZ004>006-015-016-023>025-035-036-210700-
   NORTH CENTRAL IOWA

CITY           SKY/WX    TMP DP  RH WIND       PRES   REMARKS
ALGONA *       PTCLDY    39  28  65 NW9       29.65R WCI  33
CLARION *      CLOUDY    36  32  87 W5        29.65R WCI  32
ESTHERVILLE    CLEAR     36  26  67 NW14      29.65R WCI  27
6HR MIN TEMP:  36; 6HR MAX TEMP:  44;

FORT DODGE *   PTCLDY    40  28  62 VRB5      29.66R
MASON CITY     CLEAR     37  27  67 W13       29.63R WCI  29
6HR MIN TEMP:  37; 6HR MAX TEMP:  49;

FOREST CITY *    N/A     34  28  80 W7        29.63R WCI  28
WEBSTER CITY * PTCLDY    41  30  65 W12       29.63R
IOWA FALLS *     N/A     41  31  68 SW13      29.65R
$$

IAZ007>011-017>019-026>030-037>042-050>054-066-210700-
   NORTHEAST IOWA

CITY           SKY/WX    TMP DP  RH WIND       PRES   REMARKS
CEDAR RAPIDS   PTCLDY    45  32  60 SW9       29.63S
6HR MIN TEMP:  44; 6HR MAX TEMP:  51;

CHARLES CITY * CLEAR     39  30  70 W9        29.60S WCI  33
CLINTON *      MOCLDY    47  32  56 SW15      29.65S
DECORAH *      PTCLDY    43  30  61 VRB7G13   29.57R
DUBUQUE        PTCLDY    44  31  60 SW13      29.60S
6HR MIN TEMP:  44; 6HR MAX TEMP:  50;

MONTICELLO *   PTCLDY    46  32  57 SW10      29.61F
OELWEIN *      CLOUDY    41  32  70 W10       29.61S
WATERLOO       PTCLDY    40  29  64 W7        29.61S
6HR MIN TEMP:  40; 6HR MAX TEMP:  51;

$$

IAZ064-065-067-068-078-210700-
   EAST CENTRAL IOWA

CITY           SKY/WX    TMP DP  RH WIND       PRES   REMARKS
DAVENPORT      PTCLDY    48  30  49 SW13G21   29.68S
6HR MIN TEMP:  48; 6HR MAX TEMP:  53;

IOWA CITY      CLOUDY    48  32  53 SW5       29.67S
6HR MIN TEMP:  47; 6HR MAX TEMP:  54;

MT. PLEASANT * MOCLDY    48  32  54 SW13      29.69S
MUSCATINE *    MOCLDY    48  32  53 SW10G16   29.68R
QUAD CITIES    CLOUDY    48  30  49 SW13      29.66S
6HR MIN TEMP:  48; 6HR MAX TEMP:  53;

$$

IAZ062-063-075>077-085>089-095>099-210700-
   SOUTHEAST IOWA

CITY           SKY/WX    TMP DP  RH WIND       PRES   REMARKS
BURLINGTON     CLOUDY    46  33  60 SW13      29.69F
6HR MIN TEMP:  46; 6HR MAX TEMP:  51;

FAIRFIELD *    PTCLDY    48  30  49 SW12      29.67S
FORT MADISON * PTCLDY    48  32  53 SW14      29.71F
KEOKUK *       PTCLDY    48  32  53 SW14      29.71F
OSKALOOSA *      N/A     46  32  57 SW14      29.67R
OTTUMWA        PTCLDY    50  30  46 SW14      29.67S
6HR MIN TEMP:  50; 6HR MAX TEMP:  54;

WASHINGTON *   MOCLDY    50  32  50 SW13      29.68R
$$

ABBREVIATIONS USED IN REMARKS
   TC - TEMPERATURES IN CELSIUS
  WCI - WIND CHILL INDEX
   HX - HEAT INDEX
  VSB - VISIBILITY
$$





USA.gov is the U.S. government's official web portal to all federal, state and local government web resources and services.